Location: Geroldsau
(48.7259°N, 8.2466°E)
Time: 10:49:42
(UTC+00:00)

Cosmos 1606 - Pass Details

Date: 20 June 2021
Orbit: 501 x 527 km, 82.5° (Epoch: 28 July)

Event Time Altitude Azimuth Distance (km) Brightness Sun altitude
Rises 00:55:35 0° 350° (N) 2,657 7.4 -15.3°
Reaches altitude 10° 00:57:44 10° 351° (N) 1,759 6.3 -15.1°
Maximum altitude 01:01:36 88° 77° (ENE) 522 2.6 -14.9°
Enters shadow 01:03:53 23° 171° (S) 1,119 3.9 -14.8°
